| time (UTC) | temp F | wind direction | speed MPH | gust MPH | rain 1hr in | rain 24hr in | rain mn in | humidity % | barometer mb |
| 20260505090002 | 53 | 79 | 0.0 | 1.0 | 0.00 | 0.00 | 0.00 | 75 | 1014.7 |
| 20260505085503 | 53 | 79 | 0.0 | 1.0 | 0.00 | 0.00 | 0.00 | 74 | 1014.7 |
| 20260505085002 | 54 | 80 | 0.0 | 1.0 | 0.00 | 0.00 | 0.00 | 74 | 1014.8 |
| 20260505084502 | 54 | 61 | 0.0 | 1.0 | 0.00 | 0.00 | 0.00 | 73 | 1014.8 |
| 20260505084003 | 54 | 335 | 0.0 | 1.0 | 0.00 | 0.00 | 0.00 | 72 | 1014.7 |
| 20260505083502 | 54 | 270 | 0.0 | 1.0 | 0.00 | 0.00 | 0.00 | 71 | 1014.6 |
| 20260505083002 | 55 | 265 | 0.0 | 1.0 | 0.00 | 0.00 | 0.00 | 68 | 1014.5 |
| 20260505082502 | 56 | 265 | 0.0 | 1.0 | 0.00 | 0.00 | 0.00 | 68 | 1014.5 |
| 20260505082003 | 56 | 247 | 0.0 | 2.0 | 0.00 | 0.00 | 0.00 | 66 | 1014.5 |
| 20260505081502 | 56 | 88 | 0.0 | 3.0 | 0.00 | 0.00 | 0.00 | 66 | 1014.4 |
| 20260505081002 | 57 | 83 | 0.0 | 3.0 | 0.00 | 0.00 | 0.00 | 65 | 1014.4 |
| 20260505080503 | 57 | 79 | 0.0 | 2.0 | 0.00 | 0.00 | 0.00 | 65 | 1014.4 |
| 20260505080002 | 57 | 69 | 1.0 | 3.0 | 0.00 | 0.00 | 0.00 | 64 | 1014.3 |
| 20260505075502 | 58 | 72 | 0.0 | 4.0 | 0.00 | 0.00 | 0.00 | 64 | 1014.3 |
| 20260505075003 | 57 | 73 | 0.0 | 4.0 | 0.00 | 0.00 | 0.00 | 64 | 1014.3 |
| 20260505074502 | 58 | 90 | 0.0 | 3.0 | 0.00 | 0.00 | 0.00 | 63 | 1014.3 |
| 20260505074003 | 58 | 91 | 0.0 | 4.0 | 0.00 | 0.00 | 0.00 | 62 | 1014.3 |
| 20260505073502 | 58 | 90 | 0.0 | 4.0 | 0.00 | 0.00 | 0.00 | 62 | 1014.2 |
| 20260505073002 | 59 | 87 | 0.0 | 3.0 | 0.00 | 0.00 | 0.00 | 61 | 1014.0 |
| 20260505072502 | 60 | 88 | 0.0 | 3.0 | 0.00 | 0.00 | 0.00 | 59 | 1013.9 |
| 20260505072002 | 60 | 86 | 0.0 | 2.0 | 0.00 | 0.00 | 0.00 | 59 | 1014.0 |
| 20260505071503 | 60 | 83 | 0.0 | 2.0 | 0.00 | 0.00 | 0.00 | 58 | 1014.1 |
| 20260505071002 | 60 | 0 | 0.0 | 0.0 | 0.00 | 0.00 | 0.00 | 58 | 1014.1 |
| 20260505070502 | 61 | 0 | 0.0 | 0.0 | 0.00 | 0.00 | 0.00 | 57 | 1014.1 |
| 20260505070003 | 61 | 0 | 0.0 | 0.0 | 0.00 | 0.00 | 0.00 | 56 | 1014.0 |
| 20260505065502 | 62 | 0 | 0.0 | 0.0 | 0.00 | 0.00 | 0.00 | 55 | 1014.1 |
| 20260505065002 | 62 | 0 | 0.0 | 0.0 | 0.00 | 0.00 | 0.00 | 54 | 1014.1 |
| 20260505064503 | 62 | 0 | 0.0 | 0.0 | 0.00 | 0.00 | 0.00 | 53 | 1014.0 |
| 20260505064002 | 63 | 229 | 0.0 | 4.0 | 0.00 | 0.00 | 0.00 | 53 | 1014.1 |
| 20260505063503 | 63 | 235 | 1.0 | 4.0 | 0.00 | 0.00 | 0.00 | 52 | 1014.2 |
| 20260505063003 | 64 | 259 | 1.0 | 5.0 | 0.00 | 0.00 | 0.00 | 51 | 1014.2 |
| 20260505062502 | 65 | 244 | 2.0 | 5.0 | 0.00 | 0.00 | 0.00 | 50 | 1014.2 |
| 20260505062002 | 65 | 226 | 3.0 | 8.0 | 0.00 | 0.00 | 0.00 | 49 | 1014.3 |
| 20260505061502 | 65 | 220 | 3.0 | 11.0 | 0.00 | 0.00 | 0.00 | 49 | 1014.3 |
| 20260505061002 | 65 | 222 | 2.0 | 11.0 | 0.00 | 0.00 | 0.00 | 49 | 1014.3 |
| 20260505060502 | 64 | 228 | 2.0 | 9.0 | 0.00 | 0.00 | 0.00 | 50 | 1014.2 |
| 20260505060002 | 64 | 221 | 2.0 | 10.0 | 0.00 | 0.00 | 0.00 | 53 | 1014.2 |
| 20260505055503 | 62 | 206 | 1.0 | 10.0 | 0.00 | 0.00 | 0.00 | 54 | 1014.3 |
| 20260505055002 | 61 | 201 | 0.0 | 6.0 | 0.00 | 0.00 | 0.00 | 56 | 1014.3 |
| 20260505054502 | 60 | 192 | 0.0 | 3.0 | 0.00 | 0.00 | 0.00 | 58 | 1014.3 |
| 20260505054003 | 61 | 274 | 0.0 | 1.0 | 0.00 | 0.00 | 0.00 | 57 | 1014.2 |
| 20260505053502 | 61 | 0 | 0.0 | 0.0 | 0.00 | 0.00 | 0.00 | 55 | 1014.2 |
| 20260505053002 | 62 | 0 | 0.0 | 0.0 | 0.00 | 0.00 | 0.00 | 54 | 1014.2 |
| 20260505052502 | 62 | 139 | 0.0 | 1.0 | 0.00 | 0.00 | 0.00 | 53 | 1014.3 |
| 20260505052002 | 63 | 139 | 0.0 | 1.0 | 0.00 | 0.00 | 0.00 | 52 | 1014.2 |
| 20260505051503 | 63 | 134 | 0.0 | 1.0 | 0.00 | 0.00 | 0.00 | 51 | 1014.2 |
| 20260505051003 | 64 | 154 | 0.0 | 3.0 | 0.00 | 0.00 | 0.00 | 51 | 1014.3 |
| 20260505050502 | 64 | 181 | 1.0 | 6.0 | 0.00 | 0.00 | 0.00 | 51 | 1014.3 |
| 20260505041502 | 65 | 227 | 1.0 | 7.0 | 0.00 | 0.00 | 0.00 | 48 | 1014.3 |
| 20260505041002 | 65 | 217 | 1.0 | 5.0 | 0.00 | 0.00 | 0.00 | 48 | 1014.3 |
| 20260505040502 | 65 | 213 | 1.0 | 5.0 | 0.00 | 0.00 | 0.00 | 48 | 1014.3 |
| 20260505040005 | 65 | 206 | 1.0 | 4.0 | 0.00 | 0.00 | 0.00 | 48 | 1014.4 |
| 20260505035502 | 65 | 202 | 1.0 | 5.0 | 0.00 | 0.00 | 0.00 | 48 | 1014.3 |
| 20260505035002 | 65 | 206 | 1.0 | 5.0 | 0.00 | 0.00 | 0.00 | 48 | 1014.4 |
| 20260505034503 | 65 | 209 | 1.0 | 4.0 | 0.00 | 0.00 | 0.00 | 48 | 1014.4 |
| 20260505034002 | 65 | 217 | 1.0 | 4.0 | 0.00 | 0.00 | 0.00 | 47 | 1014.4 |
| 20260505033502 | 65 | 206 | 1.0 | 5.0 | 0.00 | 0.00 | 0.00 | 47 | 1014.6 |
| 20260505033003 | 65 | 200 | 0.0 | 5.0 | 0.00 | 0.00 | 0.00 | 47 | 1014.5 |
| 20260505032502 | 65 | 222 | 0.0 | 2.0 | 0.00 | 0.00 | 0.00 | 48 | 1014.6 |
| 20260505032002 | 65 | 193 | 0.0 | 4.0 | 0.00 | 0.00 | 0.00 | 48 | 1014.5 |
| 20260505031503 | 65 | 192 | 0.0 | 4.0 | 0.00 | 0.00 | 0.00 | 48 | 1014.5 |
| 20260505031002 | 65 | 186 | 0.0 | 3.0 | 0.00 | 0.00 | 0.00 | 48 | 1014.5 |
| 20260505030502 | 65 | 197 | 0.0 | 3.0 | 0.00 | 0.00 | 0.00 | 47 | 1014.5 |
| 20260505030003 | 65 | 214 | 0.0 | 2.0 | 0.00 | 0.00 | 0.00 | 47 | 1014.5 |
| 20260505025502 | 66 | 204 | 0.0 | 2.0 | 0.00 | 0.00 | 0.00 | 47 | 1014.6 |
| 20260505025002 | 66 | 213 | 0.0 | 4.0 | 0.00 | 0.00 | 0.00 | 47 | 1014.6 |
| 20260505024503 | 66 | 212 | 0.0 | 4.0 | 0.00 | 0.00 | 0.00 | 47 | 1014.6 |
| 20260505024002 | 66 | 211 | 0.0 | 3.0 | 0.00 | 0.00 | 0.00 | 47 | 1014.6 |
| 20260505023502 | 66 | 213 | 0.0 | 4.0 | 0.00 | 0.00 | 0.00 | 47 | 1014.5 |
| 20260505023003 | 66 | 213 | 1.0 | 4.0 | 0.00 | 0.00 | 0.00 | 47 | 1014.5 |
| 20260505022502 | 66 | 207 | 1.0 | 3.0 | 0.00 | 0.00 | 0.00 | 47 | 1014.4 |
| 20260505022002 | 66 | 208 | 1.0 | 5.0 | 0.00 | 0.00 | 0.00 | 47 | 1014.4 |
| 20260505021503 | 66 | 215 | 1.0 | 5.0 | 0.00 | 0.00 | 0.00 | 47 | 1014.3 |
| 20260505021002 | 66 | 200 | 1.0 | 5.0 | 0.00 | 0.00 | 0.00 | 47 | 1014.3 |
| 20260505020502 | 66 | 191 | 0.0 | 7.0 | 0.00 | 0.00 | 0.00 | 47 | 1014.3 |
| 20260505020003 | 66 | 185 | 0.0 | 7.0 | 0.00 | 0.00 | 0.00 | 47 | 1014.2 |
| 20260505015502 | 66 | 52 | 0.0 | 2.0 | 0.00 | 0.00 | 0.00 | 46 | 1014.2 |
| 20260505015002 | 66 | 143 | 0.0 | 4.0 | 0.00 | 0.00 | 0.00 | 45 | 1014.1 |
| 20260505014502 | 67 | 159 | 0.0 | 4.0 | 0.00 | 0.00 | 0.00 | 44 | 1014.1 |
| 20260505014002 | 67 | 172 | 0.0 | 2.0 | 0.00 | 0.00 | 0.00 | 45 | 1014.1 |
| 20260505013502 | 67 | 155 | 0.0 | 2.0 | 0.00 | 0.00 | 0.00 | 44 | 1014.1 |
| 20260505013002 | 67 | 165 | 0.0 | 2.0 | 0.00 | 0.00 | 0.00 | 44 | 1014.1 |
| 20260505012502 | 67 | 127 | 0.0 | 3.0 | 0.00 | 0.00 | 0.00 | 44 | 1014.0 |
| 20260505012002 | 67 | 126 | 0.0 | 3.0 | 0.00 | 0.00 | 0.00 | 43 | 1014.0 |
| 20260505011502 | 67 | 0 | 0.0 | 0.0 | 0.00 | 0.00 | 0.00 | 43 | 1013.9 |
| 20260505011002 | 68 | 215 | 0.0 | 2.0 | 0.00 | 0.00 | 0.00 | 42 | 1013.9 |
| 20260505010502 | 68 | 210 | 1.0 | 4.0 | 0.00 | 0.00 | 0.00 | 41 | 1013.9 |
| 20260505010002 | 68 | 214 | 1.0 | 5.0 | 0.00 | 0.00 | 0.00 | 41 | 1013.8 |
| 20260505005502 | 68 | 208 | 1.0 | 5.0 | 0.00 | 0.00 | 0.00 | 41 | 1013.7 |
| 20260505005002 | 68 | 181 | 1.0 | 4.0 | 0.00 | 0.00 | 0.00 | 40 | 1013.5 |
| 20260505004502 | 69 | 173 | 1.0 | 5.0 | 0.00 | 0.00 | 0.00 | 40 | 1013.5 |
| 20260505004002 | 69 | 186 | 0.0 | 5.0 | 0.00 | 0.00 | 0.00 | 40 | 1013.3 |
| 20260505003502 | 69 | 200 | 0.0 | 3.0 | 0.00 | 0.00 | 0.00 | 39 | 1013.3 |
| 20260505003002 | 69 | 221 | 0.0 | 2.0 | 0.00 | 0.00 | 0.00 | 39 | 1013.3 |
| 20260505002502 | 69 | 212 | 1.0 | 4.0 | 0.00 | 0.00 | 0.00 | 39 | 1013.3 |
| 20260505002002 | 69 | 200 | 1.0 | 4.0 | 0.00 | 0.00 | 0.00 | 38 | 1013.3 |
| 20260505001502 | 70 | 195 | 0.0 | 5.0 | 0.00 | 0.00 | 0.00 | 38 | 1013.2 |
| 20260505001002 | 70 | 199 | 0.0 | 5.0 | 0.00 | 0.00 | 0.00 | 38 | 1013.1 |
| 20260505000503 | 71 | 193 | 1.0 | 4.0 | 0.00 | 0.00 | 0.00 | 38 | 1013.3 |
| 20260505000002 | 71 | 195 | 1.0 | 5.0 | 0.00 | 0.00 | 0.00 | 37 | 1013.2 |
| 20260504235502 | 71 | 177 | 0.0 | 5.0 | 0.00 | 0.00 | 0.00 | 36 | 1013.2 |
| 20260504235002 | 72 | 152 | 0.0 | 4.0 | 0.00 | 0.00 | 0.00 | 36 | 1013.1 |
| 20260504234502 | 72 | 169 | 0.0 | 2.0 | 0.00 | 0.00 | 0.00 | 36 | 1013.1 |
| 20260504234002 | 72 | 169 | 0.0 | 1.0 | 0.00 | 0.00 | 0.00 | 36 | 1013.2 |
| 20260504233502 | 73 | 200 | 1.0 | 3.0 | 0.00 | 0.00 | 0.00 | 35 | 1013.1 |
| 20260504233002 | 73 | 188 | 1.0 | 3.0 | 0.00 | 0.00 | 0.00 | 35 | 1013.2 |
| 20260504232502 | 74 | 207 | 1.0 | 5.0 | 0.00 | 0.00 | 0.00 | 34 | 1013.1 |
| 20260504232002 | 74 | 220 | 2.0 | 5.0 | 0.00 | 0.00 | 0.00 | 34 | 1013.1 |
| 20260504231502 | 75 | 215 | 2.0 | 6.0 | 0.00 | 0.00 | 0.00 | 34 | 1013.2 |
| 20260504231002 | 75 | 205 | 2.0 | 9.0 | 0.00 | 0.00 | 0.00 | 34 | 1013.0 |
| 20260504230502 | 75 | 200 | 3.0 | 9.0 | 0.00 | 0.00 | 0.00 | 33 | 1013.1 |
| 20260504230002 | 75 | 213 | 2.0 | 12.0 | 0.00 | 0.00 | 0.00 | 33 | 1013.0 |
| 20260504225502 | 76 | 209 | 2.0 | 12.0 | 0.00 | 0.00 | 0.00 | 34 | 1013.0 |
| 20260504225002 | 76 | 187 | 2.0 | 8.0 | 0.00 | 0.00 | 0.00 | 34 | 1013.0 |
| 20260504224502 | 76 | 175 | 2.0 | 7.0 | 0.00 | 0.00 | 0.00 | 35 | 1012.9 |
| 20260504224002 | 76 | 166 | 2.0 | 7.0 | 0.00 | 0.00 | 0.00 | 34 | 1012.9 |
| 20260504223502 | 76 | 177 | 3.0 | 7.0 | 0.00 | 0.00 | 0.00 | 35 | 1013.0 |
| 20260504223002 | 76 | 189 | 3.0 | 14.0 | 0.00 | 0.00 | 0.00 | 34 | 1013.0 |
| 20260504222502 | 76 | 188 | 3.0 | 14.0 | 0.00 | 0.00 | 0.00 | 34 | 1013.0 |
| 20260504222002 | 77 | 188 | 3.0 | 11.0 | 0.00 | 0.00 | 0.00 | 34 | 1012.9 |
| 20260504221502 | 77 | 196 | 3.0 | 11.0 | 0.00 | 0.00 | 0.00 | 33 | 1012.9 |
| 20260504221002 | 77 | 203 | 3.0 | 10.0 | 0.00 | 0.00 | 0.00 | 35 | 1012.8 |
| 20260504220502 | 78 | 197 | 3.0 | 9.0 | 0.00 | 0.00 | 0.00 | 34 | 1012.9 |
| 20260504220002 | 78 | 191 | 3.0 | 8.0 | 0.00 | 0.00 | 0.00 | 34 | 1012.8 |
| 20260504215502 | 78 | 197 | 3.0 | 10.0 | 0.00 | 0.00 | 0.00 | 33 | 1012.8 |
| 20260504215002 | 78 | 191 | 3.0 | 10.0 | 0.00 | 0.00 | 0.00 | 32 | 1012.9 |
| 20260504214502 | 78 | 192 | 2.0 | 7.0 | 0.00 | 0.00 | 0.00 | 31 | 1012.9 |
| 20260504214002 | 79 | 200 | 2.0 | 6.0 | 0.00 | 0.00 | 0.00 | 31 | 1012.9 |
| 20260504213502 | 79 | 187 | 2.0 | 8.0 | 0.00 | 0.00 | 0.00 | 31 | 1012.9 |
| 20260504213002 | 79 | 186 | 3.0 | 8.0 | 0.00 | 0.00 | 0.00 | 30 | 1012.9 |
| 20260504212502 | 78 | 190 | 2.0 | 9.0 | 0.00 | 0.00 | 0.00 | 32 | 1012.9 |
| 20260504212003 | 79 | 192 | 3.0 | 9.0 | 0.00 | 0.00 | 0.00 | 31 | 1012.9 |
| 20260504211502 | 78 | 192 | 3.0 | 9.0 | 0.00 | 0.00 | 0.00 | 31 | 1012.9 |
| 20260504211003 | 79 | 177 | 2.0 | 9.0 | 0.00 | 0.00 | 0.00 | 31 | 1012.9 |
| 20260504210502 | 79 | 187 | 2.0 | 11.0 | 0.00 | 0.00 | 0.00 | 32 | 1012.9 |
| 20260504210002 | 79 | 207 | 2.0 | 11.0 | 0.00 | 0.00 | 0.00 | 32 | 1012.8 |
| 20260504205502 | 79 | 208 | 2.0 | 8.0 | 0.00 | 0.00 | 0.00 | 31 | 1012.9 |
| 20260504205002 | 79 | 200 | 2.0 | 7.0 | 0.00 | 0.00 | 0.00 | 31 | 1012.9 |
| 20260504204502 | 80 | 198 | 2.0 | 9.0 | 0.00 | 0.00 | 0.00 | 31 | 1013.0 |
| 20260504204002 | 80 | 197 | 2.0 | 9.0 | 0.00 | 0.00 | 0.00 | 30 | 1013.0 |
| 20260504203502 | 80 | 193 | 2.0 | 7.0 | 0.00 | 0.00 | 0.00 | 30 | 1013.1 |
| 20260504203002 | 80 | 179 | 1.0 | 6.0 | 0.00 | 0.00 | 0.00 | 30 | 1013.1 |
| 20260504202502 | 81 | 173 | 1.0 | 7.0 | 0.00 | 0.00 | 0.00 | 31 | 1013.1 |
| 20260504202002 | 81 | 197 | 1.0 | 8.0 | 0.00 | 0.00 | 0.00 | 29 | 1013.2 |
| 20260504201502 | 80 | 194 | 2.0 | 8.0 | 0.00 | 0.00 | 0.00 | 31 | 1013.3 |
| 20260504201002 | 80 | 175 | 2.0 | 5.0 | 0.00 | 0.00 | 0.00 | 30 | 1013.3 |
| 20260504200502 | 80 | 181 | 1.0 | 9.0 | 0.00 | 0.00 | 0.00 | 33 | 1013.3 |
| 20260504200002 | 80 | 185 | 1.0 | 9.0 | 0.00 | 0.00 | 0.00 | 34 | 1013.5 |
| 20260504195501 | 80 | 194 | 2.0 | 7.0 | 0.00 | 0.00 | 0.00 | 32 | 1013.4 |
| 20260504195002 | 79 | 209 | 3.0 | 7.0 | 0.00 | 0.00 | 0.00 | 34 | 1013.6 |
| 20260504194502 | 79 | 195 | 2.0 | 7.0 | 0.00 | 0.00 | 0.00 | 33 | 1013.6 |
| 20260504194002 | 79 | 168 | 2.0 | 7.0 | 0.00 | 0.00 | 0.00 | 31 | 1013.7 |
| 20260504193502 | 79 | 273 | 2.0 | 6.0 | 0.00 | 0.00 | 0.00 | 33 | 1013.7 |
| 20260504193002 | 78 | 273 | 2.0 | 6.0 | 0.00 | 0.00 | 0.00 | 32 | 1013.7 |
| 20260504192502 | 79 | 205 | 2.0 | 9.0 | 0.00 | 0.00 | 0.00 | 34 | 1013.8 |
| 20260504192002 | 79 | 194 | 2.0 | 9.0 | 0.00 | 0.00 | 0.00 | 34 | 1013.9 |
| 20260504191502 | 79 | 159 | 2.0 | 7.0 | 0.00 | 0.00 | 0.00 | 33 | 1013.9 |
| 20260504191002 | 79 | 184 | 2.0 | 6.0 | 0.00 | 0.00 | 0.00 | 35 | 1014.0 |
| 20260504190502 | 78 | 193 | 2.0 | 7.0 | 0.00 | 0.00 | 0.00 | 35 | 1014.0 |
| 20260504190002 | 78 | 185 | 2.0 | 7.0 | 0.00 | 0.00 | 0.00 | 35 | 1014.0 |
| 20260504185502 | 78 | 187 | 1.0 | 7.0 | 0.00 | 0.00 | 0.00 | 31 | 1014.1 |
| 20260504185002 | 78 | 186 | 2.0 | 5.0 | 0.00 | 0.00 | 0.00 | 35 | 1014.1 |
| 20260504184502 | 77 | 240 | 2.0 | 6.0 | 0.00 | 0.00 | 0.00 | 38 | 1014.1 |
| 20260504184002 | 76 | 255 | 2.0 | 6.0 | 0.00 | 0.00 | 0.00 | 35 | 1014.2 |
| 20260504183502 | 76 | 312 | 2.0 | 5.0 | 0.00 | 0.00 | 0.00 | 36 | 1014.3 |
| 20260504183002 | 75 | 322 | 2.0 | 6.0 | 0.00 | 0.00 | 0.00 | 37 | 1014.4 |
| 20260504182502 | 75 | 290 | 2.0 | 6.0 | 0.00 | 0.00 | 0.00 | 35 | 1014.5 |
| 20260504182001 | 75 | 297 | 2.0 | 6.0 | 0.00 | 0.00 | 0.00 | 36 | 1014.5 |
| 20260504181502 | 75 | 302 | 2.0 | 6.0 | 0.00 | 0.00 | 0.00 | 38 | 1014.5 |
| 20260504181002 | 75 | 306 | 2.0 | 7.0 | 0.00 | 0.00 | 0.00 | 38 | 1014.6 |
| 20260504180501 | 75 | 309 | 2.0 | 7.0 | 0.00 | 0.00 | 0.00 | 37 | 1014.6 |
| 20260504180002 | 75 | 291 | 3.0 | 6.0 | 0.00 | 0.00 | 0.00 | 38 | 1014.7 |
| 20260504175502 | 75 | 275 | 3.0 | 6.0 | 0.00 | 0.00 | 0.00 | 39 | 1014.7 |
| 20260504175002 | 74 | 331 | 3.0 | 6.0 | 0.00 | 0.00 | 0.00 | 39 | 1014.7 |
| 20260504174502 | 74 | 334 | 2.0 | 6.0 | 0.00 | 0.00 | 0.00 | 36 | 1014.7 |
| 20260504174002 | 75 | 327 | 2.0 | 5.0 | 0.00 | 0.00 | 0.00 | 34 | 1014.7 |
| 20260504173501 | 75 | 259 | 2.0 | 5.0 | 0.00 | 0.00 | 0.00 | 36 | 1014.7 |
| 20260504173002 | 76 | 235 | 1.0 | 5.0 | 0.00 | 0.00 | 0.00 | 34 | 1014.7 |
| 20260504172501 | 76 | 169 | 1.0 | 4.0 | 0.00 | 0.00 | 0.00 | 38 | 1014.8 |
| 20260504172002 | 75 | 256 | 1.0 | 4.0 | 0.00 | 0.00 | 0.00 | 35 | 1014.7 |
| 20260504171502 | 75 | 283 | 1.0 | 4.0 | 0.00 | 0.00 | 0.00 | 34 | 1014.8 |
| 20260504171002 | 74 | 264 | 2.0 | 5.0 | 0.00 | 0.00 | 0.00 | 39 | 1015.0 |
| 20260504170502 | 74 | 260 | 2.0 | 5.0 | 0.00 | 0.00 | 0.00 | 39 | 1015.1 |
| 20260504151002 | 67 | 282 | 1.0 | 4.0 | 0.00 | 0.00 | 0.00 | 43 | 1016.8 |
| 20260504150501 | 67 | 275 | 1.0 | 5.0 | 0.00 | 0.00 | 0.00 | 46 | 1017.0 |
| 20260504141001 | 62 | 287 | 1.0 | 4.0 | 0.00 | 0.00 | 0.00 | 53 | 1016.8 |
| 20260504140502 | 62 | 312 | 1.0 | 4.0 | 0.00 | 0.00 | 0.00 | 58 | 1016.8 |
| 20260504130501 | 57 | 0 | 0.0 | 0.0 | 0.00 | 0.00 | 0.00 | 71 | 1016.3 |
| 20260504110502 | 40 | 0 | 0.0 | 0.0 | 0.00 | 0.00 | 0.00 | 95 | 1015.6 |
| 20260504100503 | 39 | 0 | 0.0 | 0.0 | 0.00 | 0.00 | 0.00 | 94 | 1015.7 |